Weather History for KCMY - September, 2013

Change the Weather History Date:

Sunday, September 15, 2013

  Actual Average Record
Temperature  
Mean Temperature 60 °F -  
Max Temperature 68 °F 70 °F 85 °F (1948)
Min Temperature 54 °F 47 °F 29 °F (2011)
Degree Days  
Heating Degree Days 4    
Growing Degree Days 10 (Base 50)    
Moisture  
Dew Point 52 °F    
Average Humidity 81    
Maximum Humidity 97    
Minimum Humidity 54    
Precipitation  
Precipitation 0.62 in - - ()
Sea Level Pressure  
Sea Level Pressure 30.07 in    
Wind  
Wind Speed 4 mph (NE)    
Max Wind Speed 12 mph    
Max Gust Speed 20 mph    
Visibility 9 miles    
Events Rain    
Averages and records for this station are not official NWS values.
T = Trace of Precipitation, MM = Missing Value Source: NWS Daily Summary

Daily Weather History Graph

Daily Weather History Graph

Search for Another Location

Airport or City:

Trip Planner

Search our weather history database for the weather conditions in past years. The results will help you decide how hot, cold, wet, or windy it might be!

Date:

Astronomy

Sep. 15, 2013 Rise Set
Actual Time 6:42 AM CDT 7:12 PM CDT
Civil Twilight 6:13 AM CDT 7:41 PM CDT
Nautical Twilight 5:39 AM CDT 8:15 PM CDT
Astronomical Twilight 5:03 AM CDT 8:51 PM CDT
Moon 4:46 PM CDT (9/15) 2:13 AM CDT (9/15)
Length of Visible Light 13h 28m
Length of Day
12h 30m
Waxing Gibbous, 82% of the Moon is Illuminated
Sep 15
Waxing Gibbous
Sep 19
Full
Sep 26
Last Quarter
Oct 4
New
Oct 11
First Quarter

Hourly Weather History & Observations

Time (CDT) Temp. Dew Point Humidity Pressure Visibility Wind Dir Wind Speed Gust Speed Precip Events Conditions
12:15 AM 55.9 °F 52.2 °F 87% 30.02 in 5.0 mi Calm Calm - 0.03 in Rain Rain
12:35 AM 55.4 °F 53.4 °F 93% 30.02 in 7.0 mi Calm Calm - 0.06 in Rain Light Rain
12:55 AM 54.9 °F 53.2 °F 94% 30.02 in 4.0 mi South 3.5 mph - 0.13 in Rain Rain
1:15 AM 54.7 °F 53.1 °F 94% 30.02 in 7.0 mi Calm Calm - 0.02 in Rain Rain
1:35 AM 54.7 °F 52.9 °F 94% 30.01 in 10.0 mi Calm Calm - 0.06 in Rain Light Rain
1:55 AM 54.5 °F 53.2 °F 96% 30.01 in 7.0 mi ESE 3.5 mph - 0.09 in Rain Light Rain
2:15 AM 54.5 °F 53.2 °F 96% 30.00 in 10.0 mi Calm Calm - 0.01 in   Drizzle
2:35 AM 54.7 °F 52.9 °F 94% 29.99 in 7.0 mi SSE 5.8 mph - 0.02 in Rain Rain
2:55 AM 54.7 °F 52.7 °F 93% 29.98 in 10.0 mi SSE 8.1 mph - 0.02 in   Light Drizzle
3:15 AM 54.7 °F 52.7 °F 93% 29.97 in 10.0 mi SE 5.8 mph - N/A   Overcast
3:35 AM 54.9 °F 52.7 °F 92% 29.96 in 10.0 mi SSE 6.9 mph - N/A   Light Drizzle
3:55 AM 55.4 °F 52.7 °F 91% 29.95 in 10.0 mi SSE 6.9 mph - N/A   Overcast
4:15 AM 55.4 °F 52.7 °F 91% 29.94 in 10.0 mi ESE 5.8 mph - N/A   Overcast
4:35 AM 55.4 °F 52.7 °F 91% 29.93 in 10.0 mi SE 4.6 mph - N/A   Overcast
4:55 AM 55.4 °F 52.7 °F 91% 29.93 in 10.0 mi SSE 5.8 mph - N/A   Overcast
5:15 AM 55.6 °F 52.3 °F 89% 29.92 in 10.0 mi South 4.6 mph - N/A   Overcast
5:35 AM 55.8 °F 52.7 °F 89% 29.93 in 10.0 mi South 5.8 mph - N/A   Overcast
5:55 AM 55.6 °F 52.7 °F 90% 29.94 in 10.0 mi SSW 4.6 mph - N/A Rain Light Rain
6:15 AM 55.4 °F 52.7 °F 91% 29.95 in 10.0 mi Calm Calm - N/A   Overcast
6:35 AM 55.4 °F 53.4 °F 93% 29.94 in 10.0 mi Calm Calm - N/A   Drizzle
6:55 AM 55.4 °F 53.6 °F 94% 29.96 in 7.0 mi Calm Calm - N/A   Drizzle
7:15 AM 54.9 °F 53.6 °F 96% 29.95 in 3.0 mi Calm Calm - 0.06 in Rain Heavy Rain
7:35 AM 54.9 °F 53.8 °F 96% 29.96 in 5.0 mi Calm Calm - 0.11 in Rain Rain
7:55 AM 54.7 °F 53.8 °F 97% 29.97 in 7.0 mi Calm Calm - 0.14 in Rain Light Rain
8:15 AM 54.7 °F 53.8 °F 97% 29.98 in 7.0 mi North 4.6 mph - 0.02 in Rain Rain
8:35 AM 54.7 °F 53.8 °F 97% 29.98 in 3.0 mi Calm Calm - 0.07 in Rain Rain
8:55 AM 55.0 °F 54.1 °F 97% 29.98 in 3.0 mi Calm Calm - 0.12 in Rain Rain
9:15 AM 54.9 °F 54.0 °F 97% 29.98 in 2.0 mi Calm Calm - 0.08 in Rain Rain
9:35 AM 55.4 °F 54.5 °F 97% 30.00 in 4.0 mi Calm Calm - 0.11 in Rain Light Rain
9:55 AM 55.4 °F 54.5 °F 97% 30.01 in 10.0 mi Calm Calm - 0.12 in Rain Light Rain
10:15 AM 55.6 °F 54.5 °F 96% 30.01 in 10.0 mi North 3.5 mph - N/A   Overcast
10:35 AM 56.1 °F 55.0 °F 96% 30.01 in 10.0 mi North 4.6 mph - N/A   Overcast
10:55 AM 56.5 °F 55.4 °F 96% 30.02 in 10.0 mi NNE 4.6 mph - N/A   Overcast
11:15 AM 56.5 °F 55.0 °F 95% 30.02 in 10.0 mi North 4.6 mph - N/A   Overcast
11:35 AM 56.8 °F 55.4 °F 95% 30.02 in 7.0 mi North 3.5 mph - N/A   Overcast
11:55 AM 57.4 °F 55.6 °F 94% 30.03 in 10.0 mi North 4.6 mph - N/A   Overcast
12:15 PM 59.4 °F 55.6 °F 87% 30.03 in 10.0 mi North 5.8 mph - N/A   Overcast
12:35 PM 60.4 °F 54.9 °F 82% 30.04 in 10.0 mi NE 9.2 mph - N/A   Overcast
12:55 PM 60.4 °F 54.0 °F 79% 30.05 in 10.0 mi North 8.1 mph - N/A   Overcast
1:15 PM 60.4 °F 53.6 °F 78% 30.05 in 10.0 mi NE 11.5 mph - N/A   Overcast
1:35 PM 62.6 °F 53.1 °F 71% 30.06 in 10.0 mi NE 10.4 mph - N/A   Overcast
1:55 PM 64.6 °F 53.4 °F 67% 30.06 in 10.0 mi NE 10.4 mph - N/A   Mostly Cloudy
2:15 PM 63.3 °F 52.7 °F 68% 30.07 in 10.0 mi ENE 9.2 mph - N/A   Mostly Cloudy
2:35 PM 66.2 °F 51.1 °F 58% 30.07 in 10.0 mi ENE 10.4 mph - N/A   Scattered Clouds
2:55 PM 66.7 °F 51.3 °F 57% 30.07 in 10.0 mi ENE 11.5 mph - N/A   Mostly Cloudy
3:15 PM 64.8 °F 51.4 °F 62% 30.09 in 10.0 mi NNE 9.2 mph - N/A   Overcast
3:35 PM 65.5 °F 51.8 °F 61% 30.09 in 10.0 mi North 10.4 mph - N/A   Overcast
3:55 PM 64.0 °F 51.4 °F 64% 30.10 in 10.0 mi NNE 8.1 mph - N/A   Overcast
4:15 PM 65.3 °F 51.3 °F 60% 30.10 in 10.0 mi NNE 8.1 mph - N/A   Mostly Cloudy
4:35 PM 67.3 °F 50.2 °F 54% 30.11 in 10.0 mi North 8.1 mph - N/A   Scattered Clouds
4:55 PM 66.2 °F 49.3 °F 54% 30.12 in 10.0 mi NNE 5.8 mph - N/A   Scattered Clouds
5:15 PM 65.8 °F 50.4 °F 57% 30.12 in 10.0 mi NE 6.9 mph - N/A   Mostly Cloudy
5:35 PM 64.6 °F 50.5 °F 60% 30.13 in 10.0 mi NE 4.6 mph - N/A   Overcast
5:55 PM 64.4 °F 51.3 °F 62% 30.14 in 10.0 mi Calm Calm - N/A   Overcast
6:15 PM 64.4 °F 51.8 °F 64% 30.15 in 10.0 mi North 4.6 mph - N/A   Overcast
6:35 PM 64.4 °F 52.2 °F 64% 30.15 in 10.0 mi North 4.6 mph - N/A   Overcast
6:55 PM 63.7 °F 52.2 °F 66% 30.16 in 10.0 mi North 8.1 mph - N/A   Overcast
7:15 PM 63.0 °F 52.0 °F 67% 30.17 in 10.0 mi North 3.5 mph - N/A   Overcast
7:35 PM 62.6 °F 52.0 °F 68% 30.18 in 10.0 mi North 10.4 mph - N/A   Overcast
7:55 PM 61.9 °F 52.2 °F 70% 30.19 in 10.0 mi North 8.1 mph - N/A   Overcast
8:15 PM 61.5 °F 52.2 °F 71% 30.20 in 10.0 mi NNE 8.1 mph - N/A   Overcast
8:35 PM 61.0 °F 52.0 °F 72% 30.22 in 10.0 mi NE 5.8 mph - N/A   Overcast
8:55 PM 59.9 °F 50.2 °F 70% 30.22 in 10.0 mi North 8.1 mph 19.6 mph N/A   Overcast
9:15 PM 58.3 °F 49.8 °F 73% 30.24 in 10.0 mi North 9.2 mph 16.1 mph N/A   Scattered Clouds
9:35 PM 57.7 °F 49.3 °F 73% 30.25 in 10.0 mi North 9.2 mph - N/A   Mostly Cloudy
9:55 PM 57.0 °F 48.7 °F 74% 30.25 in 10.0 mi NNE 5.8 mph - N/A   Mostly Cloudy
10:15 PM 56.3 °F 48.4 °F 75% 30.26 in 10.0 mi NE 5.8 mph - N/A   Mostly Cloudy
10:35 PM 55.6 °F 48.4 °F 77% 30.26 in 10.0 mi NE 4.6 mph - N/A   Scattered Clouds
10:55 PM 55.4 °F 48.4 °F 77% 30.27 in 10.0 mi NE 4.6 mph - N/A   Overcast
11:15 PM 55.9 °F 48.2 °F 75% 30.27 in 10.0 mi ENE 8.1 mph - N/A   Overcast
11:35 PM 55.6 °F 46.6 °F 72% 30.28 in 10.0 mi ENE 10.4 mph - N/A   Overcast
11:55 PM 55.4 °F 46.4 °F 72% 30.29 in 10.0 mi NE 5.8 mph - N/A   Overcast